| time (UTC) | temp C | wind direction | speed KPH | gust KPH | rain 1hr cm | rain 24hr cm | rain mn cm | humidity % | barometer mb |
| 20260504050535 | 13 | 268 | 14.5 | 19.3 | 0.00 | 0.00 | 0.00 | 59 | 925.3 |
| 20260504045528 | 13 | 292 | 12.9 | 19.3 | 0.00 | 0.00 | 0.00 | 51 | 925.2 |
| 20260504044520 | 15 | 283 | 22.5 | 46.7 | 0.00 | 0.00 | 0.00 | 48 | 925.3 |
| 20260504043545 | 14 | 300 | 19.3 | 30.6 | 0.00 | 0.00 | 0.00 | 43 | 925.2 |
| 20260504042557 | 14 | 292 | 9.7 | 12.9 | 0.00 | 0.00 | 0.00 | 46 | 925.0 |
| 20260504041531 | 14 | 266 | 9.7 | 16.1 | 0.00 | 0.00 | 0.00 | 46 | 925.0 |
| 20260504040521 | 14 | 275 | 9.7 | 17.7 | 0.00 | 0.00 | 0.00 | 43 | 925.2 |
| 20260504035547 | 14 | 261 | 11.3 | 16.1 | 0.00 | 0.00 | 0.00 | 47 | 925.3 |
| 20260504034538 | 15 | 265 | 8.0 | 16.1 | 0.00 | 0.00 | 0.00 | 42 | 925.4 |
| 20260504033551 | 13 | 236 | 8.0 | 12.9 | 0.00 | 0.00 | 0.00 | 48 | 925.5 |
| 20260504032523 | 14 | 258 | 8.0 | 11.3 | 0.00 | 0.00 | 0.00 | 45 | 925.6 |
| 20260504031548 | 14 | 185 | 3.2 | 11.3 | 0.00 | 0.00 | 0.00 | 42 | 925.7 |
| 20260504030539 | 15 | 198 | 3.2 | 6.4 | 0.00 | 0.00 | 0.00 | 51 | 925.8 |
| 20260504025546 | 15 | 190 | 4.8 | 6.4 | 0.00 | 0.00 | 0.00 | 45 | 925.9 |
| 20260504024603 | 15 | 261 | 9.7 | 12.9 | 0.00 | 0.00 | 0.00 | 46 | 926.1 |
| 20260504023532 | 15 | 272 | 8.0 | 11.3 | 0.00 | 0.00 | 0.00 | 48 | 926.2 |
| 20260504022543 | 15 | 261 | 9.7 | 12.9 | 0.00 | 0.00 | 0.00 | 53 | 926.2 |
| 20260504021535 | 14 | 272 | 6.4 | 8.0 | 0.00 | 0.00 | 0.00 | 58 | 926.1 |
| 20260504020526 | 16 | 247 | 8.0 | 11.3 | 0.00 | 0.00 | 0.00 | 52 | 926.0 |
| 20260504015541 | 17 | 268 | 8.0 | 12.9 | 0.00 | 0.00 | 0.00 | 47 | 926.0 |
| 20260504014546 | 18 | 270 | 9.7 | 16.1 | 0.00 | 0.00 | 0.00 | 47 | 926.1 |
| 20260504013538 | 19 | 223 | 6.4 | 12.9 | 0.00 | 0.00 | 0.00 | 38 | 926.2 |
| 20260504012529 | 20 | 241 | 16.1 | 29.0 | 0.00 | 0.00 | 0.00 | 36 | 926.3 |
| 20260504011520 | 20 | 232 | 17.7 | 25.7 | 0.00 | 0.00 | 0.00 | 35 | 926.6 |
| 20260504005537 | 20 | 239 | 8.0 | 19.3 | 0.00 | 0.00 | 0.00 | 35 | 926.8 |
| 20260504004530 | 20 | 236 | 9.7 | 22.5 | 0.00 | 0.00 | 0.00 | 36 | 927.0 |
| 20260503222046 | 20 | 281 | 29.0 | 40.2 | 0.00 | 0.00 | 0.00 | 35 | 929.3 |
| 20260503221017 | 21 | 275 | 27.4 | 37.0 | 0.00 | 0.00 | 0.00 | 32 | 929.5 |
| 20260503215035 | 20 | 275 | 20.9 | 30.6 | 0.00 | 0.00 | 0.00 | 34 | 929.8 |
| 20260503214028 | 20 | 286 | 27.4 | 41.8 | 0.00 | 0.00 | 0.00 | 35 | 929.9 |
| 20260503213020 | 20 | 265 | 20.9 | 29.0 | 0.00 | 0.00 | 0.00 | 38 | 930.1 |
| 20260503212105 | 20 | 286 | 22.5 | 33.8 | 0.00 | 0.00 | 0.00 | 30 | 930.4 |
| 20260503211036 | 20 | 289 | 25.7 | 37.0 | 0.00 | 0.00 | 0.00 | 35 | 930.6 |
| 20260503210049 | 20 | 284 | 24.1 | 35.4 | 0.00 | 0.00 | 0.00 | 33 | 930.8 |
| 20260503205021 | 21 | 264 | 16.1 | 25.7 | 0.00 | 0.00 | 0.00 | 29 | 931.0 |
| 20260503204106 | 21 | 275 | 29.0 | 43.5 | 0.00 | 0.00 | 0.00 | 33 | 931.2 |
| 20260503203038 | 20 | 278 | 22.5 | 37.0 | 0.00 | 0.00 | 0.00 | 34 | 931.4 |
| 20260503202031 | 20 | 290 | 22.5 | 37.0 | 0.00 | 0.00 | 0.00 | 37 | 931.7 |
| 20260503201043 | 20 | 279 | 17.7 | 30.6 | 0.00 | 0.00 | 0.00 | 33 | 931.9 |
| 20260503200048 | 21 | 273 | 20.9 | 30.6 | 0.00 | 0.00 | 0.00 | 31 | 932.0 |
| 20260503195100 | 20 | 274 | 22.5 | 40.2 | 0.00 | 0.00 | 0.00 | 35 | 932.2 |
| 20260503194213 | 20 | 288 | 20.9 | 30.6 | 0.00 | 0.00 | 0.00 | 33 | 932.5 |
| 20260503193024 | 19 | 290 | 25.7 | 41.8 | 0.00 | 0.00 | 0.00 | 35 | 932.7 |
| 20260503192018 | 18 | 280 | 24.1 | 33.8 | 0.00 | 0.00 | 0.00 | 36 | 933.0 |
| 20260503191041 | 19 | 288 | 30.6 | 40.2 | 0.00 | 0.00 | 0.00 | 34 | 933.2 |
| 20260503190035 | 18 | 275 | 24.1 | 37.0 | 0.00 | 0.00 | 0.00 | 35 | 933.4 |
| 20260503185026 | 18 | 281 | 22.5 | 30.6 | 0.00 | 0.00 | 0.00 | 38 | 933.7 |
| 20260503184019 | 18 | 285 | 20.9 | 30.6 | 0.00 | 0.00 | 0.00 | 34 | 933.9 |
| 20260503183043 | 18 | 279 | 27.4 | 37.0 | 0.00 | 0.00 | 0.00 | 35 | 934.3 |
| 20260503182057 | 18 | 289 | 22.5 | 33.8 | 0.00 | 0.00 | 0.00 | 34 | 934.5 |
| 20260503181028 | 18 | 287 | 24.1 | 37.0 | 0.00 | 0.00 | 0.00 | 37 | 934.6 |
| 20260503180021 | 18 | 289 | 20.9 | 33.8 | 0.00 | 0.00 | 0.00 | 36 | 934.8 |
| 20260503175044 | 18 | 310 | 12.9 | 17.7 | 0.00 | 0.00 | 0.00 | 35 | 935.0 |
| 20260503174038 | 18 | 281 | 16.1 | 29.0 | 0.00 | 0.00 | 0.00 | 34 | 935.3 |
| 20260503173029 | 18 | 274 | 12.9 | 22.5 | 0.00 | 0.00 | 0.00 | 36 | 935.5 |
| 20260503172023 | 18 | 271 | 12.9 | 19.3 | 0.00 | 0.00 | 0.00 | 33 | 935.7 |
| 20260503171050 | 18 | 272 | 16.1 | 22.5 | 0.00 | 0.00 | 0.00 | 34 | 935.9 |
| 20260503131024 | 3 | 246 | 6.4 | 11.3 | 0.00 | 0.00 | 0.00 | 77 | 938.6 |
| 20260503081020 | 7 | 226 | 4.8 | 8.0 | 0.00 | 0.00 | 0.00 | 57 | 938.6 |
| 20260503072047 | 8 | 31 | 9.7 | 12.9 | 0.00 | 0.00 | 0.00 | 52 | 938.3 |
| 20260503071119 | 8 | 27 | 9.7 | 16.1 | 0.00 | 0.00 | 0.00 | 52 | 938.4 |